Time,TemperatureF,DewpointF,PressureIn,WindDirection,WindDirectionDegrees,WindSpeedMPH,WindSpeedGustMPH,Humidity,HourlyPrecipIn,Conditions,Clouds,dailyrainin,SoftwareType,DateUTC
2013-06-13 07:51:00,55.0,49.3,28.97,East,90,0.0,0.0,81,0.00,,---,0.00,VWS V14.01,2013-06-13 11:51:00,
2013-06-13 07:52:00,55.0,49.3,28.97,East,90,0.0,0.0,81,0.00,,---,0.09,VWS V14.01,2013-06-13 11:52:00,
2013-06-13 07:53:00,55.0,49.3,28.97,ENE,68,2.7,2.7,81,0.00,,---,0.00,VWS V14.01,2013-06-13 11:53:00,
2013-06-13 07:54:00,55.0,49.3,28.97,ENE,68,1.1,2.7,81,0.00,,---,0.00,VWS V14.01,2013-06-13 11:54:00,
2013-06-13 07:55:00,55.0,49.3,28.97,ENE,68,0.0,1.1,81,0.00,,---,0.00,VWS V14.01,2013-06-13 11:55:00,
2013-06-13 07:56:00,55.0,49.3,28.97,ENE,68,0.0,0.0,81,0.00,,---,0.00,VWS V14.01,2013-06-13 11:56:00,
2013-06-13 07:57:00,55.4,49.7,28.97,ENE,68,0.9,0.9,81,0.00,,---,0.00,VWS V14.01,2013-06-13 11:57:00,
2013-06-13 07:58:00,55.4,49.7,28.97,East,90,0.0,0.9,81,0.00,,---,0.00,VWS V14.01,2013-06-13 11:58:00,
2013-06-13 07:59:00,55.6,49.8,28.97,East,90,0.0,0.0,81,0.00,,---,0.00,VWS V14.01,2013-06-13 11:59:00,
2013-06-13 08:00:00,55.6,49.8,28.97,East,90,0.0,0.0,81,0.00,,---,0.00,VWS V14.01,2013-06-13 12:00:00,
2013-06-13 08:01:00,56.3,50.5,28.97,East,90,0.0,0.0,81,0.00,,---,0.00,VWS V14.01,2013-06-13 12:01:00,
2013-06-13 08:02:00,56.3,50.5,28.97,East,90,0.0,0.0,81,0.00,,---,0.00,VWS V14.01,2013-06-13 12:02:00,
2013-06-13 08:03:00,56.5,50.7,28.97,SE,135,2.5,2.5,81,0.00,,---,0.00,VWS V14.01,2013-06-13 12:03:00,
2013-06-13 08:04:00,56.7,50.9,28.97,SE,135,0.0,2.5,81,0.00,,---,0.00,VWS V14.01,2013-06-13 12:04:00,
2013-06-13 08:05:00,56.7,50.9,28.97,SE,135,0.0,0.0,81,0.00,,---,0.00,VWS V14.01,2013-06-13 12:05:00,
2013-06-13 08:06:00,57.2,51.4,28.97,SE,135,0.0,0.0,81,0.00,,---,0.00,VWS V14.01,2013-06-13 12:06:00,
2013-06-13 08:07:00,57.2,51.4,28.97,SE,135,0.0,0.0,81,0.00,,---,0.00,VWS V14.01,2013-06-13 12:07:00,
2013-06-13 08:08:00,57.9,52.1,28.97,SE,135,0.0,0.0,81,0.00,,---,0.00,VWS V14.01,2013-06-13 12:08:00,
2013-06-13 08:09:00,57.9,52.1,28.97,SE,135,1.1,1.1,81,0.00,,---,0.00,VWS V14.01,2013-06-13 12:09:00,
2013-06-13 08:10:00,58.1,52.3,28.97,South,180,0.0,1.1,81,0.00,,---,0.00,VWS V14.01,2013-06-13 12:10:00,
2013-06-13 08:11:00,58.1,52.3,28.97,South,180,0.0,0.0,81,0.00,,---,0.00,VWS V14.01,2013-06-13 12:11:00,
2013-06-13 08:12:00,58.1,52.3,28.97,SSW,202,0.0,0.0,81,0.00,,---,0.00,VWS V14.01,2013-06-13 12:12:00,
2013-06-13 08:13:00,58.8,53.0,28.97,ESE,112,1.6,1.6,81,0.00,,---,0.00,VWS V14.01,2013-06-13 12:13:00,
2013-06-13 08:14:00,58.8,53.0,28.97,SE,135,0.0,1.6,81,0.00,,---,0.00,VWS V14.01,2013-06-13 12:14:00,
2013-06-13 08:15:00,59.2,53.0,28.97,SSE,158,0.0,0.0,80,0.00,,---,0.00,VWS V14.01,2013-06-13 12:15:00,
2013-06-13 08:16:00,59.2,53.0,28.97,SSE,158,0.0,0.0,80,0.00,,---,0.00,VWS V14.01,2013-06-13 12:16:00,
2013-06-13 08:17:00,59.0,52.8,28.97,SSE,158,0.0,0.0,80,0.00,,---,0.00,VWS V14.01,2013-06-13 12:17:00,
2013-06-13 08:18:00,59.0,52.8,28.97,SSE,158,2.5,2.5,80,0.00,,---,0.00,VWS V14.01,2013-06-13 12:18:00,
2013-06-13 08:19:00,59.2,53.0,28.97,SSE,158,0.0,2.5,80,0.00,,---,0.00,VWS V14.01,2013-06-13 12:19:00,
2013-06-13 08:20:00,59.2,53.0,28.97,SSE,158,0.0,0.0,80,0.00,,---,0.00,VWS V14.01,2013-06-13 12:20:00,
2013-06-13 08:21:00,59.4,52.8,28.97,SSE,158,0.0,0.0,79,0.00,,---,0.00,VWS V14.01,2013-06-13 12:21:00,
2013-06-13 08:22:00,59.9,53.4,28.97,SSE,158,0.0,0.0,79,0.00,,---,0.00,VWS V14.01,2013-06-13 12:22:00,
2013-06-13 08:23:00,59.9,53.4,28.97,SSE,158,0.0,0.0,79,0.00,,---,0.00,VWS V14.01,2013-06-13 12:23:00,
2013-06-13 08:24:00,60.6,54.4,28.97,SSE,158,0.0,0.0,80,0.00,,---,0.00,VWS V14.01,2013-06-13 12:24:00,
2013-06-13 08:25:00,60.6,54.4,28.97,SSE,158,0.0,0.0,80,0.00,,---,0.00,VWS V14.01,2013-06-13 12:25:00,
2013-06-13 08:26:00,61.2,54.6,28.97,South,180,0.0,0.0,79,0.00,,---,0.00,VWS V14.01,2013-06-13 12:26:00,
2013-06-13 08:27:00,61.3,54.8,28.97,WSW,248,0.0,0.0,79,0.00,,---,0.00,VWS V14.01,2013-06-13 12:27:00,
2013-06-13 08:28:00,61.3,54.8,28.97,WSW,248,0.0,0.0,79,0.00,,---,0.00,VWS V14.01,2013-06-13 12:28:00,
2013-06-13 08:29:00,61.3,54.4,28.97,WSW,248,0.0,0.0,78,0.00,,---,0.00,VWS V14.01,2013-06-13 12:29:00,
2013-06-13 08:30:00,61.3,54.4,28.97,WSW,248,0.0,0.0,78,0.00,,---,0.00,VWS V14.01,2013-06-13 12:30:00,
2013-06-13 08:31:00,61.5,54.6,28.97,WSW,248,0.0,0.0,78,0.00,,---,0.00,VWS V14.01,2013-06-13 12:31:00,
2013-06-13 08:32:00,61.5,54.6,28.97,WSW,248,0.0,0.0,78,0.00,,---,0.00,VWS V14.01,2013-06-13 12:32:00,
2013-06-13 08:34:00,61.9,55.0,28.97,WSW,248,0.0,0.0,78,0.00,,---,0.00,VWS V14.01,2013-06-13 12:34:00,
2013-06-13 08:35:00,61.7,54.4,28.97,WSW,248,0.0,0.0,77,0.00,,---,0.00,VWS V14.01,2013-06-13 12:35:00,
2013-06-13 08:36:00,62.2,55.0,28.97,WSW,248,0.0,0.0,77,0.00,,---,0.00,VWS V14.01,2013-06-13 12:36:00,
2013-06-13 08:37:00,62.2,55.0,28.97,WSW,248,0.0,0.0,77,0.00,,---,0.00,VWS V14.01,2013-06-13 12:37:00,
2013-06-13 08:38:00,62.4,55.1,28.97,WSW,248,0.0,0.0,77,0.00,,---,0.00,VWS V14.01,2013-06-13 12:38:00,
2013-06-13 08:39:00,62.4,55.1,28.97,WSW,248,0.0,0.0,77,0.00,,---,0.00,VWS V14.01,2013-06-13 12:39:00,
2013-06-13 08:40:00,62.6,54.6,28.97,WSW,248,0.0,0.0,75,0.00,,---,0.00,VWS V14.01,2013-06-13 12:40:00,
2013-06-13 08:41:00,62.6,54.6,28.97,WSW,248,0.0,0.0,75,0.00,,---,0.00,VWS V14.01,2013-06-13 12:41:00,
2013-06-13 08:42:00,62.8,54.8,28.97,WSW,248,0.0,0.0,75,0.00,,---,0.00,VWS V14.01,2013-06-13 12:42:00,
2013-06-13 08:43:00,62.8,54.8,28.97,WSW,248,0.0,0.0,75,0.00,,---,0.00,VWS V14.01,2013-06-13 12:43:00,
2013-06-13 08:44:00,63.0,54.9,28.97,WSW,248,0.0,0.0,75,0.00,,---,0.00,VWS V14.01,2013-06-13 12:44:00,
2013-06-13 08:45:00,63.0,54.5,28.97,WSW,248,0.0,0.0,74,0.00,,---,0.00,VWS V14.01,2013-06-13 12:45:00,
2013-06-13 08:46:00,63.0,54.5,28.97,WSW,248,0.0,0.0,74,0.00,,---,0.00,VWS V14.01,2013-06-13 12:46:00,
2013-06-13 08:47:00,63.5,55.1,28.97,WSW,248,0.0,0.0,74,0.00,,---,0.00,VWS V14.01,2013-06-13 12:47:00,
2013-06-13 08:48:00,63.5,55.1,28.97,WSW,248,0.0,0.0,74,0.00,,---,0.00,VWS V14.01,2013-06-13 12:48:00,
2013-06-13 08:49:00,63.7,55.2,28.97,WSW,248,0.0,0.0,74,0.00,,---,0.00,VWS V14.01,2013-06-13 12:49:00,
2013-06-13 08:50:00,63.7,55.2,28.97,WSW,248,0.0,0.0,74,0.00,,---,0.00,VWS V14.01,2013-06-13 12:50:00,
2013-06-13 08:51:00,64.0,55.6,28.97,WSW,248,2.5,2.5,74,0.00,,---,0.00,VWS V14.01,2013-06-13 12:51:00,
2013-06-13 08:52:00,63.7,54.9,28.97,WSW,248,1.3,2.5,73,0.00,,---,0.00,VWS V14.01,2013-06-13 12:52:00,
2013-06-13 08:53:00,63.7,54.9,28.97,WSW,248,0.9,1.3,73,0.00,,---,0.00,VWS V14.01,2013-06-13 12:53:00,
2013-06-13 08:54:00,63.7,54.9,28.97,WSW,248,0.0,0.9,73,0.00,,---,0.00,VWS V14.01,2013-06-13 12:54:00,
2013-06-13 08:55:00,63.7,54.9,28.97,WSW,248,0.0,0.0,73,0.00,,---,0.00,VWS V14.01,2013-06-13 12:55:00,
2013-06-13 08:56:00,63.9,55.0,28.97,WSW,248,0.0,0.0,73,0.00,,---,0.00,VWS V14.01,2013-06-13 12:56:00,
2013-06-13 08:57:00,63.9,55.0,28.97,WSW,248,0.0,0.0,73,0.00,,---,0.00,VWS V14.01,2013-06-13 12:57:00,
2013-06-13 08:58:00,64.8,55.9,28.97,SSW,202,0.0,0.0,73,0.00,,---,0.00,VWS V14.01,2013-06-13 12:58:00,
2013-06-13 08:59:00,65.1,57.0,28.97,East,90,2.2,2.2,75,0.00,,---,0.00,VWS V14.01,2013-06-13 12:59:00,
2013-06-13 09:00:00,65.1,57.0,28.97,East,90,2.0,2.2,75,0.00,,---,0.00,VWS V14.01,2013-06-13 13:00:00,
2013-06-13 09:01:00,65.7,57.2,28.97,East,90,1.1,2.0,74,0.00,,---,0.00,VWS V14.01,2013-06-13 13:01:00,
2013-06-13 09:02:00,65.7,57.2,28.97,East,90,0.0,1.1,74,0.00,,---,0.00,VWS V14.01,2013-06-13 13:02:00,
2013-06-13 09:03:00,66.0,57.1,28.97,East,90,0.0,0.0,73,0.00,,---,0.00,VWS V14.01,2013-06-13 13:03:00,
2013-06-13 09:04:00,66.0,57.1,28.97,SW,225,2.0,2.0,73,0.00,,---,0.00,VWS V14.01,2013-06-13 13:04:00,
2013-06-13 09:05:00,66.2,56.5,28.97,SW,225,1.1,2.0,71,0.00,,---,0.00,VWS V14.01,2013-06-13 13:05:00,
2013-06-13 09:06:00,66.2,56.1,28.97,SW,225,0.0,1.1,70,0.00,,---,0.00,VWS V14.01,2013-06-13 13:06:00,
2013-06-13 09:07:00,66.2,56.1,28.97,SW,225,0.0,0.0,70,0.00,,---,0.00,VWS V14.01,2013-06-13 13:07:00,
2013-06-13 09:08:00,66.6,56.5,28.97,SW,225,0.0,0.0,70,0.00,,---,0.00,VWS V14.01,2013-06-13 13:08:00,
2013-06-13 09:09:00,66.6,56.5,28.97,SW,225,0.0,0.0,70,0.00,,---,0.00,VWS V14.01,2013-06-13 13:09:00,
2013-06-13 09:10:00,67.3,57.2,28.97,SW,225,0.0,0.0,70,0.00,,---,0.00,VWS V14.01,2013-06-13 13:10:00,
2013-06-13 09:11:00,67.3,57.2,28.97,SW,225,0.0,0.0,70,0.00,,---,0.00,VWS V14.01,2013-06-13 13:11:00,
2013-06-13 09:12:00,67.3,57.2,28.97,SW,225,0.0,0.0,70,0.00,,---,0.00,VWS V14.01,2013-06-13 13:12:00,
2013-06-13 09:13:00,67.3,56.8,28.97,SW,225,0.0,0.0,69,0.00,,---,0.00,VWS V14.01,2013-06-13 13:13:00,
2013-06-13 09:14:00,67.3,56.8,28.97,WNW,292,2.0,2.0,69,0.00,,---,0.00,VWS V14.01,2013-06-13 13:14:00,
2013-06-13 09:15:00,66.6,55.3,28.97,WNW,292,0.9,2.0,67,0.00,,---,0.00,VWS V14.01,2013-06-13 13:15:00,
2013-06-13 09:16:00,66.6,55.3,28.97,WNW,292,0.0,0.9,67,0.00,,---,0.00,VWS V14.01,2013-06-13 13:16:00,
2013-06-13 09:17:00,66.7,55.8,28.97,WNW,292,0.0,0.0,68,0.00,,---,0.00,VWS V14.01,2013-06-13 13:17:00,
2013-06-13 09:18:00,66.7,55.8,28.97,WNW,292,0.0,0.0,68,0.00,,---,0.00,VWS V14.01,2013-06-13 13:18:00,
2013-06-13 09:19:00,68.0,57.1,28.97,WNW,292,0.0,0.0,68,0.00,,---,0.00,VWS V14.01,2013-06-13 13:19:00,
2013-06-13 09:20:00,68.0,57.1,28.97,WNW,292,0.0,0.0,68,0.00,,---,0.00,VWS V14.01,2013-06-13 13:20:00,
2013-06-13 09:21:00,68.9,57.9,28.97,WNW,292,1.1,2.0,68,0.00,,---,0.00,VWS V14.01,2013-06-13 13:21:00,
2013-06-13 09:22:00,68.0,55.0,28.97,WNW,292,0.0,1.1,63,0.00,,---,0.00,VWS V14.01,2013-06-13 13:22:00,
2013-06-13 09:23:00,68.0,55.0,28.97,WNW,292,0.0,0.0,63,0.00,,---,0.00,VWS V14.01,2013-06-13 13:23:00,
2013-06-13 09:24:00,68.0,55.4,28.97,WNW,292,0.0,0.0,64,0.00,,---,0.00,VWS V14.01,2013-06-13 13:24:00,
2013-06-13 09:25:00,68.0,55.4,28.97,WNW,292,0.0,0.0,64,0.00,,---,0.00,VWS V14.01,2013-06-13 13:25:00,
2013-06-13 09:26:00,68.7,57.3,28.97,WNW,292,1.6,1.6,67,0.00,,---,0.00,VWS V14.01,2013-06-13 13:26:00,
2013-06-13 09:27:00,68.7,57.3,28.97,WNW,292,0.0,1.6,67,0.00,,---,0.00,VWS V14.01,2013-06-13 13:27:00,
2013-06-13 09:28:00,68.5,56.7,28.97,WNW,292,0.0,0.0,66,0.00,,---,0.00,VWS V14.01,2013-06-13 13:28:00,
2013-06-13 09:29:00,68.9,56.7,28.97,WNW,292,0.0,0.0,65,0.00,,---,0.00,VWS V14.01,2013-06-13 13:29:00,
2013-06-13 09:30:00,68.9,56.7,28.94,WNW,292,0.0,0.0,65,0.00,,---,0.00,VWS V14.01,2013-06-13 13:30:00,
2013-06-13 09:31:00,69.3,57.4,28.94,SSE,158,1.6,1.6,66,0.00,,---,0.00,VWS V14.01,2013-06-13 13:31:00,
2013-06-13 09:32:00,69.3,57.4,28.94,ESE,112,0.0,1.6,66,0.00,,---,0.00,VWS V14.01,2013-06-13 13:32:00,
2013-06-13 09:33:00,69.8,57.1,28.94,ESE,112,0.0,0.0,64,0.00,,---,0.00,VWS V14.01,2013-06-13 13:33:00,
2013-06-13 09:34:00,69.8,57.1,28.94,ESE,112,0.0,0.0,64,0.00,,---,0.00,VWS V14.01,2013-06-13 13:34:00,
2013-06-13 09:35:00,69.8,57.1,28.94,ESE,112,0.0,0.0,64,0.00,,---,0.00,VWS V14.01,2013-06-13 13:35:00,
2013-06-13 09:36:00,69.8,57.1,28.94,ESE,112,0.0,0.0,64,0.00,,---,0.00,VWS V14.01,2013-06-13 13:36:00,
2013-06-13 09:37:00,69.8,56.7,28.94,East,90,0.0,0.0,63,0.00,,---,0.00,VWS V14.01,2013-06-13 13:37:00,
2013-06-13 09:38:00,70.0,56.4,28.94,ENE,68,0.0,0.0,62,0.00,,---,0.00,VWS V14.01,2013-06-13 13:38:00,
2013-06-13 09:39:00,70.0,56.4,28.94,ENE,68,0.0,0.0,62,0.00,,---,0.00,VWS V14.01,2013-06-13 13:39:00,
2013-06-13 09:40:00,69.6,53.7,28.94,ENE,68,0.9,0.9,57,0.00,,---,0.00,VWS V14.01,2013-06-13 13:40:00,
2013-06-13 09:41:00,69.6,53.7,28.94,ENE,68,0.0,0.9,57,0.00,,---,0.00,VWS V14.01,2013-06-13 13:41:00,
2013-06-13 09:42:00,70.3,56.3,28.94,ENE,68,0.0,0.0,61,0.00,,---,0.00,VWS V14.01,2013-06-13 13:42:00,
2013-06-13 09:43:00,70.3,56.3,28.94,ENE,68,0.0,0.0,61,0.00,,---,0.00,VWS V14.01,2013-06-13 13:43:00,
2013-06-13 09:44:00,70.5,56.0,28.94,ENE,68,0.0,0.0,60,0.00,,---,0.00,VWS V14.01,2013-06-13 13:44:00,
2013-06-13 09:45:00,70.7,56.6,28.94,ENE,68,0.0,0.0,61,0.00,,---,0.00,VWS V14.01,2013-06-13 13:45:00,
2013-06-13 09:46:00,70.7,56.6,28.94,ENE,68,0.0,0.0,61,0.00,,---,0.00,VWS V14.01,2013-06-13 13:46:00,
2013-06-13 09:47:00,71.4,57.3,28.94,ENE,68,0.0,0.0,61,0.00,,---,0.00,VWS V14.01,2013-06-13 13:47:00,
2013-06-13 09:48:00,71.4,57.3,28.94,ENE,68,1.6,1.6,61,0.00,,---,0.00,VWS V14.01,2013-06-13 13:48:00,
2013-06-13 09:49:00,72.0,56.9,28.94,ENE,68,1.3,1.6,59,0.00,,---,0.00,VWS V14.01,2013-06-13 13:49:00,
2013-06-13 09:50:00,71.4,55.9,28.94,ENE,68,2.7,2.7,58,0.00,,---,0.00,VWS V14.01,2013-06-13 13:50:00,
2013-06-13 09:51:00,71.4,55.9,28.94,ENE,68,0.0,2.7,58,0.00,,---,0.00,VWS V14.01,2013-06-13 13:51:00,
2013-06-13 09:52:00,71.6,56.1,28.94,ENE,68,0.0,0.0,58,0.00,,---,0.00,VWS V14.01,2013-06-13 13:52:00,
2013-06-13 09:53:00,71.6,56.1,28.94,NW,315,1.3,1.3,58,0.00,,---,0.00,VWS V14.01,2013-06-13 13:53:00,
2013-06-13 09:54:00,71.6,55.6,28.94,NW,315,0.9,1.3,57,0.00,,---,0.00,VWS V14.01,2013-06-13 13:54:00,
2013-06-13 09:55:00,71.6,55.6,28.94,NW,315,1.1,1.1,57,0.00,,---,0.00,VWS V14.01,2013-06-13 13:55:00,
2013-06-13 09:56:00,71.4,55.9,28.94,NW,315,2.0,2.0,58,0.00,,---,0.00,VWS V14.01,2013-06-13 13:56:00,
2013-06-13 09:57:00,71.4,55.9,28.94,NW,315,0.0,2.0,58,0.00,,---,0.00,VWS V14.01,2013-06-13 13:57:00,
2013-06-13 09:58:00,70.7,54.7,28.94,NW,315,0.0,0.0,57,0.00,,---,0.00,VWS V14.01,2013-06-13 13:58:00,
2013-06-13 09:59:00,70.5,54.6,28.94,NW,315,0.0,0.0,57,0.00,,---,0.00,VWS V14.01,2013-06-13 13:59:00,
2013-06-13 10:00:00,70.5,54.6,28.94,NW,315,0.0,0.0,57,0.00,,---,0.00,VWS V14.01,2013-06-13 14:00:00,
2013-06-13 10:01:00,70.0,51.0,28.94,NW,315,0.0,0.0,51,0.00,,---,0.00,VWS V14.01,2013-06-13 14:01:00,
2013-06-13 10:02:00,70.0,51.0,28.94,NW,315,0.0,0.0,51,0.00,,---,0.00,VWS V14.01,2013-06-13 14:02:00,
2013-06-13 10:03:00,69.8,52.9,28.94,NW,315,1.3,1.3,55,0.00,,---,0.00,VWS V14.01,2013-06-13 14:03:00,
2013-06-13 10:04:00,69.8,52.9,28.94,NW,315,2.2,2.2,55,0.00,,---,0.00,VWS V14.01,2013-06-13 14:04:00,
2013-06-13 10:05:00,70.0,49.4,28.94,NW,315,0.9,2.2,48,0.00,,---,0.00,VWS V14.01,2013-06-13 14:05:00,
2013-06-13 10:06:00,70.3,52.4,28.94,NW,315,0.0,0.9,53,0.00,,---,0.00,VWS V14.01,2013-06-13 14:06:00,
2013-06-13 10:07:00,70.3,52.4,28.94,NW,315,0.0,0.0,53,0.00,,---,0.00,VWS V14.01,2013-06-13 14:07:00,
2013-06-13 10:08:00,71.4,53.9,28.94,NNE,22,2.0,2.0,54,0.00,,---,0.00,VWS V14.01,2013-06-13 14:08:00,
2013-06-13 10:09:00,71.4,53.9,28.94,WNW,292,2.0,2.0,54,0.00,,---,0.00,VWS V14.01,2013-06-13 14:09:00,
2013-06-13 10:10:00,71.8,53.8,28.94,WNW,292,2.5,2.5,53,0.00,,---,0.00,VWS V14.01,2013-06-13 14:10:00,
2013-06-13 10:11:00,71.8,53.8,28.94,WNW,292,3.6,3.6,53,0.00,,---,0.00,VWS V14.01,2013-06-13 14:11:00,
2013-06-13 10:12:00,72.0,52.9,28.94,WNW,292,2.5,3.6,51,0.00,,---,0.00,VWS V14.01,2013-06-13 14:12:00,
2013-06-13 10:13:00,72.0,52.9,28.94,NW,315,3.1,3.1,51,0.00,,---,0.00,VWS V14.01,2013-06-13 14:13:00,
2013-06-13 10:14:00,72.3,52.7,28.94,NNE,22,2.0,3.1,50,0.00,,---,0.00,VWS V14.01,2013-06-13 14:14:00,
2013-06-13 10:15:00,72.7,53.0,28.94,NNE,22,0.9,2.0,50,0.00,,---,0.00,VWS V14.01,2013-06-13 14:15:00,
2013-06-13 10:16:00,73.2,53.5,28.94,NNE,22,0.0,0.0,50,0.00,,---,0.00,VWS V14.01,2013-06-13 14:16:00,
2013-06-13 10:17:00,73.2,53.5,28.94,NNE,22,0.0,0.0,50,0.00,,---,0.00,VWS V14.01,2013-06-13 14:17:00,
2013-06-13 10:18:00,73.2,53.5,28.94,SSE,158,2.7,2.7,50,0.00,,---,0.00,VWS V14.01,2013-06-13 14:18:00,
2013-06-13 10:19:00,73.6,54.4,28.94,SSE,158,0.0,2.7,51,0.00,,---,0.00,VWS V14.01,2013-06-13 14:19:00,
2013-06-13 10:20:00,73.6,53.8,28.94,SW,225,0.0,0.0,50,0.00,,---,0.00,VWS V14.01,2013-06-13 14:20:00,
2013-06-13 10:21:00,73.6,53.8,28.94,NE,45,1.6,1.6,50,0.00,,---,0.00,VWS V14.01,2013-06-13 14:21:00,
2013-06-13 10:22:00,73.2,52.9,28.94,NE,45,1.6,1.6,49,0.00,,---,0.00,VWS V14.01,2013-06-13 14:22:00,
2013-06-13 10:23:00,73.2,52.9,28.94,ENE,68,2.5,2.7,49,0.00,,---,0.00,VWS V14.01,2013-06-13 14:23:00,
2013-06-13 10:24:00,72.7,49.5,28.94,East,90,3.6,3.6,44,0.00,,---,0.00,VWS V14.01,2013-06-13 14:24:00,
2013-06-13 10:25:00,72.7,49.5,28.94,East,90,2.7,3.6,44,0.00,,---,0.00,VWS V14.01,2013-06-13 14:25:00,
2013-06-13 10:26:00,72.9,50.3,28.94,NE,45,2.5,3.4,45,0.00,,---,0.00,VWS V14.01,2013-06-13 14:26:00,
2013-06-13 10:27:00,72.9,50.3,28.94,NE,45,2.5,3.4,45,0.00,,---,0.00,VWS V14.01,2013-06-13 14:27:00,
2013-06-13 10:28:00,72.7,51.3,28.94,NE,45,0.0,2.5,47,0.00,,---,0.00,VWS V14.01,2013-06-13 14:28:00,
2013-06-13 10:29:00,72.7,51.3,28.94,East,90,1.1,1.1,47,0.00,,---,0.00,VWS V14.01,2013-06-13 14:29:00,
2013-06-13 10:30:00,73.2,51.8,28.94,East,90,2.5,2.5,47,0.00,,---,0.00,VWS V14.01,2013-06-13 14:30:00,
2013-06-13 10:31:00,73.4,50.8,28.94,East,90,2.2,2.7,45,0.00,,---,0.00,VWS V14.01,2013-06-13 14:31:00,
2013-06-13 10:32:00,73.4,50.8,28.94,East,90,2.2,2.7,45,0.00,,---,0.00,VWS V14.01,2013-06-13 14:32:00,
2013-06-13 10:33:00,73.6,51.0,28.94,ENE,68,0.0,2.2,45,0.00,,---,0.00,VWS V14.01,2013-06-13 14:33:00,
2013-06-13 10:34:00,73.6,51.0,28.94,NW,315,2.0,2.0,45,0.00,,---,0.00,VWS V14.01,2013-06-13 14:34:00,
2013-06-13 10:35:00,73.8,49.3,28.94,NW,315,2.5,2.5,42,0.00,,---,0.00,VWS V14.01,2013-06-13 14:35:00,
2013-06-13 10:36:00,72.9,47.2,28.94,NW,315,1.3,1.3,40,0.00,,---,0.00,VWS V14.01,2013-06-13 14:36:00,
2013-06-13 10:37:00,72.9,47.2,28.94,NW,315,2.2,2.2,40,0.00,,---,0.00,VWS V14.01,2013-06-13 14:37:00,
2013-06-13 10:38:00,73.4,49.6,28.94,East,90,2.5,2.5,43,0.00,,---,0.00,VWS V14.01,2013-06-13 14:38:00,
2013-06-13 10:39:00,73.4,49.6,28.94,ENE,68,2.5,2.5,43,0.00,,---,0.00,VWS V14.01,2013-06-13 14:39:00,
2013-06-13 10:40:00,74.5,52.4,28.94,ENE,68,2.5,2.5,46,0.00,,---,0.00,VWS V14.01,2013-06-13 14:40:00,
2013-06-13 10:41:00,74.8,52.1,28.94,ENE,68,1.3,2.5,45,0.00,,---,0.00,VWS V14.01,2013-06-13 14:41:00,
2013-06-13 10:42:00,74.8,52.1,28.94,ENE,68,1.3,2.5,45,0.00,,---,0.00,VWS V14.01,2013-06-13 14:42:00,
2013-06-13 10:43:00,75.0,52.3,28.94,ENE,68,0.0,1.3,45,0.00,,---,0.00,VWS V14.01,2013-06-13 14:43:00,
2013-06-13 10:44:00,75.0,52.3,28.94,ENE,68,0.0,0.0,45,0.00,,---,0.00,VWS V14.01,2013-06-13 14:44:00,
2013-06-13 10:45:00,75.6,52.8,28.94,ENE,68,2.7,2.7,45,0.00,,---,0.00,VWS V14.01,2013-06-13 14:45:00,
2013-06-13 10:46:00,75.6,52.8,28.94,ENE,68,1.3,1.3,45,0.00,,---,0.00,VWS V14.01,2013-06-13 14:46:00,
2013-06-13 10:47:00,75.6,52.8,28.94,ENE,68,2.0,2.0,45,0.00,,---,0.00,VWS V14.01,2013-06-13 14:47:00,
2013-06-13 10:48:00,75.6,52.8,28.94,SSE,158,4.0,4.0,45,0.00,,---,0.00,VWS V14.01,2013-06-13 14:48:00,
2013-06-13 10:49:00,76.1,53.2,28.94,SE,135,4.0,4.0,45,0.00,,---,0.00,VWS V14.01,2013-06-13 14:49:00,
2013-06-13 10:50:00,76.1,53.2,28.94,East,90,2.2,4.0,45,0.00,,---,0.00,VWS V14.01,2013-06-13 14:50:00,
2013-06-13 10:51:00,76.1,52.6,28.94,ENE,68,4.3,4.3,44,0.00,,---,0.00,VWS V14.01,2013-06-13 14:51:00,
2013-06-13 10:52:00,75.2,50.6,28.94,ENE,68,4.3,4.3,42,0.00,,---,0.00,VWS V14.01,2013-06-13 14:52:00,
2013-06-13 10:53:00,75.2,50.6,28.94,ENE,68,1.1,4.3,42,0.00,,---,0.00,VWS V14.01,2013-06-13 14:53:00,
2013-06-13 10:54:00,74.8,50.2,28.94,ENE,68,1.6,1.6,42,0.00,,---,0.00,VWS V14.01,2013-06-13 14:54:00,
2013-06-13 10:55:00,74.8,50.2,28.94,NW,315,1.6,1.6,42,0.00,,---,0.00,VWS V14.01,2013-06-13 14:55:00,
2013-06-13 10:56:00,74.7,50.7,28.94,ENE,68,3.6,3.6,43,0.00,,---,0.00,VWS V14.01,2013-06-13 14:56:00,
2013-06-13 10:57:00,74.7,50.7,28.94,ENE,68,3.6,3.6,43,0.00,,---,0.00,VWS V14.01,2013-06-13 14:57:00,
2013-06-13 10:58:00,74.3,49.1,28.94,South,180,0.9,3.6,41,0.00,,---,0.00,VWS V14.01,2013-06-13 14:58:00,
2013-06-13 10:59:00,75.2,49.9,28.94,South,180,0.9,0.9,41,0.00,,---,0.00,VWS V14.01,2013-06-13 14:59:00,
2013-06-13 11:00:00,75.2,49.9,28.94,SE,135,1.6,1.6,41,0.00,,---,0.00,VWS V14.01,2013-06-13 15:00:00,
2013-06-13 11:01:00,75.6,50.9,28.94,ESE,112,4.0,4.0,42,0.00,,---,0.00,VWS V14.01,2013-06-13 15:01:00,
2013-06-13 11:02:00,75.6,50.9,28.94,ESE,112,2.9,4.0,42,0.00,,---,0.00,VWS V14.01,2013-06-13 15:02:00,
2013-06-13 11:03:00,75.4,50.1,28.94,East,90,1.1,2.9,41,0.00,,---,0.00,VWS V14.01,2013-06-13 15:03:00,
2013-06-13 11:04:00,75.4,50.1,28.94,ESE,112,2.0,2.0,41,0.00,,---,0.00,VWS V14.01,2013-06-13 15:04:00,
2013-06-13 11:05:00,75.6,50.2,28.94,NNW,338,1.1,2.0,41,0.00,,---,0.00,VWS V14.01,2013-06-13 15:05:00,
2013-06-13 11:06:00,75.9,51.2,28.94,NNW,338,1.6,1.6,42,0.00,,---,0.00,VWS V14.01,2013-06-13 15:06:00,
2013-06-13 11:07:00,75.9,51.2,28.94,NNW,338,2.9,2.9,42,0.00,,---,0.00,VWS V14.01,2013-06-13 15:07:00,
2013-06-13 11:08:00,75.9,49.2,28.94,NNW,338,0.0,2.9,39,0.00,,---,0.00,VWS V14.01,2013-06-13 15:08:00,
2013-06-13 11:09:00,75.9,49.2,28.94,NNW,338,0.9,0.9,39,0.00,,---,0.00,VWS V14.01,2013-06-13 15:09:00,
2013-06-13 11:10:00,76.1,48.0,28.94,NNW,338,0.0,0.9,37,0.00,,---,0.00,VWS V14.01,2013-06-13 15:10:00,
2013-06-13 11:11:00,77.0,50.9,28.94,NNW,338,0.0,2.0,40,0.00,,---,0.00,VWS V14.01,2013-06-13 15:11:00,
2013-06-13 11:12:00,77.0,50.8,28.94,NNW,338,0.0,2.0,40,0.00,,---,0.00,VWS V14.01,2013-06-13 15:12:00,
2013-06-13 11:13:00,77.0,50.8,28.94,NNW,338,0.0,0.0,40,0.00,,---,0.00,VWS V14.01,2013-06-13 15:13:00,
2013-06-13 11:14:00,77.0,49.5,28.94,NW,315,2.7,2.7,38,0.00,,---,0.00,VWS V14.01,2013-06-13 15:14:00,
2013-06-13 11:15:00,75.2,44.9,28.94,WNW,292,4.0,4.0,34,0.00,,---,0.00,VWS V14.01,2013-06-13 15:15:00,
2013-06-13 11:16:00,75.4,47.3,28.94,WNW,292,0.0,1.6,37,0.00,,---,0.00,VWS V14.01,2013-06-13 15:16:00,
2013-06-13 11:17:00,75.4,47.3,28.94,WNW,292,0.0,1.6,37,0.00,,---,0.00,VWS V14.01,2013-06-13 15:17:00,
2013-06-13 11:18:00,75.4,47.3,28.94,NE,45,2.5,2.5,37,0.00,,---,0.00,VWS V14.01,2013-06-13 15:18:00,
2013-06-13 11:19:00,74.7,46.7,28.94,NE,45,2.2,2.5,37,0.00,,---,0.00,VWS V14.01,2013-06-13 15:19:00,
2013-06-13 11:20:00,74.7,46.7,28.94,NE,45,0.0,2.2,37,0.00,,---,0.00,VWS V14.01,2013-06-13 15:20:00,
2013-06-13 11:21:00,75.0,47.0,28.94,ENE,68,0.0,0.0,37,0.00,,---,0.00,VWS V14.01,2013-06-13 15:21:00,
2013-06-13 11:22:00,75.0,47.0,28.94,ENE,68,0.0,0.0,37,0.00,,---,0.00,VWS V14.01,2013-06-13 15:22:00,
2013-06-13 11:23:00,75.4,48.0,28.94,ENE,68,1.1,1.1,38,0.00,,---,0.00,VWS V14.01,2013-06-13 15:23:00,
2013-06-13 11:24:00,74.7,46.0,28.94,ENE,68,2.7,2.7,36,0.00,,---,0.00,VWS V14.01,2013-06-13 15:24:00,
2013-06-13 11:25:00,74.7,46.0,28.94,ENE,68,1.6,2.7,36,0.00,,---,0.00,VWS V14.01,2013-06-13 15:25:00,
2013-06-13 11:26:00,73.6,42.7,28.94,NE,45,2.0,2.5,33,0.00,,---,0.00,VWS V14.01,2013-06-13 15:26:00,
2013-06-13 11:27:00,73.6,42.7,28.94,NE,45,2.0,2.5,33,0.00,,---,0.00,VWS V14.01,2013-06-13 15:27:00,
2013-06-13 11:28:00,72.5,42.6,28.94,NE,45,1.6,2.0,34,0.00,,---,0.00,VWS V14.01,2013-06-13 15:28:00,
2013-06-13 11:29:00,72.7,42.7,28.94,NE,45,0.0,1.6,34,0.00,,---,0.00,VWS V14.01,2013-06-13 15:29:00,
2013-06-13 11:30:00,72.7,42.7,28.94,NE,45,1.3,1.3,34,0.00,,---,0.00,VWS V14.01,2013-06-13 15:30:00,
2013-06-13 11:31:00,72.1,42.2,28.94,East,90,1.6,2.0,34,0.00,,---,0.00,VWS V14.01,2013-06-13 15:31:00,
2013-06-13 11:32:00,72.1,42.2,28.94,East,90,1.6,2.0,34,0.00,,---,0.00,VWS V14.01,2013-06-13 15:32:00,
2013-06-13 11:33:00,72.3,43.2,28.94,ESE,112,2.5,2.9,35,0.00,,---,0.00,VWS V14.01,2013-06-13 15:33:00,
2013-06-13 11:34:00,72.3,43.2,28.94,SSE,158,0.0,2.5,35,0.00,,---,0.00,VWS V14.01,2013-06-13 15:34:00,
2013-06-13 11:35:00,71.6,42.5,28.94,NE,45,2.9,2.9,35,0.00,,---,0.00,VWS V14.01,2013-06-13 15:35:00,
2013-06-13 11:36:00,72.0,44.3,28.94,NE,45,1.6,1.6,37,0.00,,---,0.00,VWS V14.01,2013-06-13 15:36:00,
2013-06-13 11:37:00,72.0,44.3,28.94,NE,45,0.0,1.6,37,0.00,,---,0.00,VWS V14.01,2013-06-13 15:37:00,
2013-06-13 11:38:00,71.4,43.8,28.94,NE,45,2.0,2.0,37,0.00,,---,0.00,VWS V14.01,2013-06-13 15:38:00,
2013-06-13 11:39:00,71.4,43.8,28.94,NE,45,2.0,2.2,37,0.00,,---,0.00,VWS V14.01,2013-06-13 15:39:00,
2013-06-13 11:40:00,71.1,42.8,28.94,NE,45,0.0,2.0,36,0.00,,---,0.00,VWS V14.01,2013-06-13 15:40:00,
2013-06-13 11:41:00,71.1,44.2,28.94,NE,45,0.0,0.0,38,0.00,,---,0.00,VWS V14.01,2013-06-13 15:41:00,
2013-06-13 11:42:00,71.1,44.2,28.94,NE,45,0.0,0.0,38,0.00,,---,0.00,VWS V14.01,2013-06-13 15:42:00,
2013-06-13 11:43:00,71.1,44.2,28.91,NE,45,0.0,0.0,38,0.00,,---,0.00,VWS V14.01,2013-06-13 15:43:00,
2013-06-13 11:44:00,71.1,43.5,28.91,NE,45,0.0,0.0,37,0.00,,---,0.00,VWS V14.01,2013-06-13 15:44:00,
2013-06-13 11:45:00,71.1,43.5,28.91,NE,45,0.0,0.0,37,0.00,,---,0.00,VWS V14.01,2013-06-13 15:45:00,
2013-06-13 11:46:00,71.1,43.5,28.91,ENE,68,1.6,1.6,37,0.00,,---,0.00,VWS V14.01,2013-06-13 15:46:00,